Hourly Weather Roundup
Issued by NWS Central Illinois

Home | Current Version | Previous Version | Text Only | Print | Product List | Glossary On
Versions: 1 2 3 4 5 6 7 8 9 10 11 12 13 14 15 16 17 18 19 20 21 22 23 24 25 26 27 28 29 30 31 32 33 34 35 36 37 38 39 40 41 42 43 44 45 46 47 48 49 50
000
NZUS43 KILX 011710
HWRILX

AREA WEATHER ROUNDUP
NATIONAL WEATHER SERVICE, LINCOLN IL
1100 AM CST SUN MAR 01 2015


CITY           SKY/WX    TMP DP  RH WIND       PRES   REMARKS
BLOOMINGTON    LGT SNOW  25  21  86 N3        30.36F FOG
CHAMPAIGN      LGT SNOW  24  22  91 CALM      30.35F FOG
DECATUR        LGT SNOW  25  23  92 CALM      30.36F FOG
FLORA          CLOUDY    30  30  98 CALM      30.38F FOG
GALESBURG      LGT SNOW  23  18  83 W6        30.38S WCI  15
JACKSONVILLE   LGT SNOW  27  23  85 W3        30.38S
LACON          LGT SNOW  22  18  83 CALM      30.38S
LAWRENCEVILLE  CLOUDY    33  30  88 CALM      30.38R FOG
LITCHFIELD     MIX PCPN  27  24  89 CALM      30.35F
$$


CITY           SKY/WX    TMP DP  RH WIND       PRES   REMARKS
LINCOLN        LGT SNOW  27  23  85 CALM      30.39S
MACOMB         PTSUNNY   23  20  88 NW6       30.41S WCI  16
MATTOON        LGT SNOW  29  25  85 N7        30.35F FOG     WCI  22
MT CARMEL AP   CLOUDY    34  32  93 CALM      30.37S FOG
OLNEY-NOBLE AP CLOUDY    30  30 100 CALM      30.37F FOG
PARIS          LGT SNOW  28  26  93 CALM      30.36F
PEORIA         CLOUDY    25  18  74 NW6       30.38S WCI  18
PONTIAC        LGT SNOW  23  21  91 CALM      30.38S
RANTOUL        LGT SNOW  26  23  89 CALM      30.36F VSB 3/4
ROBINSON       CLOUDY    30  30  98 CALM      30.38S FOG
SPRINGFIELD    LGT SNOW  26  24  92 CALM      30.38S VSB 3/4
TAYLORVILLE    LGT SNOW  27  23  86 N3        30.36F
$$

...REGIONAL REPORTS...


CITY           SKY/WX    TMP DP  RH WIND       PRES   REMARKS
CHICAGO O`HARE CLOUDY    20  16  84 W5        30.35S FOG     WCI  13
KANKAKEE       LGT SNOW  24  20  87 CALM      30.38S VSB 1
MOLINE         CLOUDY    24  15  68 NW7       30.38S WCI  16
MOUNT VERNON   CLOUDY    32  27  80 CALM      30.38F
PITTSFIELD     CLOUDY    26  22  86 NW5       30.39R FOG     WCI  20
QUINCY         CLOUDY    24  19  81 NW9       30.39R WCI  14
ROCKFORD       CLOUDY    19  14  81 S6        30.37S HAZE    WCI  11
$$


CITY           SKY/WX    TMP DP  RH WIND       PRES   REMARKS
BURLINGTON     CLOUDY    22  19  89 CALM      30.38F
CEDAR RAPIDS   PTSUNNY   21  17  84 SW7       30.35F WCI  12
DES MOINES     MOSUNNY   28  17  63 SW8       30.36F WCI  20
KIRKSVILLE     CLOUDY    25  18  74 CALM      30.40R
OTTUMWA        CLOUDY    24  18  77 W6        30.38F WCI  17
ST LOUIS       FRZ DRZL  30  25  80 W6        30.39R WCI  24
$$


CITY           SKY/WX    TMP DP  RH WIND       PRES   REMARKS
TERRE HAUTE    CLOUDY    30  27  88 N6        30.37S FOG     WCI  24
EVANSVILLE     CLOUDY    36  29  75 W3        30.36S
INDIANAPOLIS   DRIZZLE   30  26  85 NW3       30.33F FOG
LAFAYETTE      LGT SNOW  25  22  88 CALM      30.36F VSB 3/4
MADISON        FLURRIES  20  12  71 S6        30.31F WCI  12
MILWAUKEE      PTSUNNY   22  13  68 SW10      30.33S WCI  11
$$





USA.gov is the U.S. government's official web portal to all federal, state and local government web resources and services.